Home > Weather > Aberdeen > Past weeks

Flag for United Kingdom Past Weather in Aberdeen, Scotland, United Kingdom — Yesterday and Last 2 Weeks

Now
61 °F

Scattered clouds.


Feels Like: 61 °F
Forecast: 54 / 61 °F
Wind: 6 mph from East

Location: Aberdeen / Dyce

Current Time: Aug 28, 2016 at 3:09:38 PM

Latest Report: Aug 28, 2016 at 2:20 PM


Visibility: N/A

Pressure: 29.95 "Hg

Humidity: 83%

Dew Point: 55 °F

Location of AberdeenLocation

Past Weather in Aberdeen — Graph

°F

Aberdeen Temperature Yesterday

Maximum temperature yesterday: 64 °F (at 1:50 PM)
Minimum temperature yesterday: 48 °F (at 3:20 AM)
Average temperature yesterday: 56 °F

High & Low Weather Summary for the Past Weeks

 TemperatureHumidityPressure
High73 °F (Aug 22, 3:20 PM)100% (Aug 15, 1:20 AM)30.30 "Hg (Aug 15, 1:20 AM)
Low46 °F (Aug 15, 4:50 AM)49% (Aug 26, 2:50 PM)29.45 "Hg (Aug 20, 3:20 AM)
Average58 °F85%29.98 "Hg
* Reported Aug 13 1:20 PM — Aug 28 1:50 PM, Aberdeen, Weather by CustomWeather, © 2016

Note: Actual official high and low records may vary slightly from our data, if they occured in-between our weather recording intervals... More about our weather records

Advertising

Aberdeen Weather History for the Previous 24 Hours

Scroll right to see more
 ConditionsComfort  
Time TempWeatherWind HumidityBarometerVisibility
1:50 PM
Sun, Aug 28
59 °FScattered clouds.7 mph88%29.95 "HgN/A
1:20 PM61 °FScattered clouds.9 mph83%29.92 "HgN/A
12:50 PM61 °FScattered clouds.7 mph88%29.92 "HgN/A
12:20 PM63 °FPartly sunny.5 mph83%29.95 "HgN/A
11:50 AM61 °FScattered clouds.5 mph83%29.95 "HgN/A
11:20 AM59 °FScattered clouds.5 mph88%29.95 "HgN/A
10:50 AM59 °FPartly sunny.2 mph88%29.95 "HgN/A
10:20 AM59 °FPartly sunny.3 mph88%29.95 "HgN/A
9:50 AM57 °FPartly sunny.5 mph94%29.95 "Hg5 mi
9:20 AM57 °FPartly sunny.5 mph94%29.95 "Hg4 mi
8:50 AM55 °FFog.5 mph100%29.95 "Hg3 mi
8:20 AM55 °FFog.6 mph94%29.92 "Hg2 mi
7:50 AM55 °FFog.5 mph94%29.92 "Hg2 mi
7:20 AM55 °FFog.5 mph94%29.95 "Hg2 mi
6:50 AM54 °FFog.2 mph100%29.92 "Hg2 mi
6:20 AM54 °FFog.2 mph100%29.92 "Hg2 mi
5:50 AM54 °FFog.5 mph100%29.92 "Hg2 mi
5:20 AM54 °FPartly cloudy.3 mph100%29.95 "Hg4 mi
4:50 AM54 °FFog.1 mph100%29.95 "Hg3 mi
4:20 AM54 °FFog.3 mph100%29.95 "Hg4 mi
3:50 AM54 °FFog.3 mph100%29.95 "Hg2 mi
3:20 AM54 °FFog.2 mph100%29.95 "Hg2 mi
2:50 AM54 °FFog.3 mph100%29.95 "Hg3 mi
2:20 AM55 °FFog.2 mph94%29.98 "Hg2 mi
1:50 AM55 °FFog.2 mph94%29.98 "Hg3 mi
1:20 AM55 °FPassing clouds.1 mph94%29.98 "Hg4 mi
12:50 AM55 °FCool.1 mph94%29.98 "HgN/A
12:20 AM55 °FPassing clouds.5 mph94%30.01 "Hg6 mi
11:50 PM
Sat, Aug 27
55 °FPassing clouds.6 mph100%30.01 "HgN/A
11:20 PM55 °FPartly cloudy.3 mph94%30.01 "HgN/A
10:50 PM57 °FPartly cloudy.3 mph94%30.01 "HgN/A
10:20 PM57 °FPartly cloudy.6 mph94%30.04 "HgN/A
9:50 PM55 °FPassing clouds.6 mph94%30.04 "HgN/A
9:20 PM55 °FPassing clouds.6 mph94%30.04 "HgN/A
8:50 PM55 °FScattered clouds.7 mph94%30.04 "HgN/A
8:20 PM55 °FScattered clouds.9 mph94%30.04 "HgN/A
7:50 PM57 °FPassing clouds.6 mph88%30.04 "HgN/A
7:20 PM57 °FPassing clouds.8 mph88%30.04 "HgN/A
6:50 PM57 °FPassing clouds.9 mph88%30.04 "HgN/A
6:20 PM59 °FPassing clouds.9 mph82%30.04 "HgN/A
5:50 PM59 °FPassing clouds.9 mph82%30.04 "HgN/A
5:20 PM61 °FPassing clouds.10 mph72%30.07 "HgN/A
4:50 PM61 °FPassing clouds.12 mph72%30.07 "HgN/A
4:20 PM61 °FPassing clouds.13 mph72%30.07 "HgN/A
3:50 PM61 °FPassing clouds.13 mph77%30.07 "HgN/A
3:20 PM61 °FPassing clouds.13 mph72%30.07 "HgN/A
Weather by CustomWeather, © 2016

See weather overviewHow to use our weather pages